Time,TemperatureF,DewpointF,PressureIn,WindDirection,WindDirectionDegrees,WindSpeedMPH,WindSpeedGustMPH,Humidity,HourlyPrecipIn,Conditions,Clouds,dailyrainin,SoftwareType,DateUTC
2013-06-17 00:14:00,81.7,73.7,29.97,WSW,247,2.2,-999.0,77,-99.99,,,0.00,Acu-Link.com,2013-06-17 05:14:00,
2013-06-17 00:29:00,81.1,73.6,29.97,ESE,112,2.2,-999.0,78,-99.99,,,0.00,Acu-Link.com,2013-06-17 05:29:00,
2013-06-17 00:44:00,80.8,73.6,29.97,SSE,157,2.2,-999.0,79,-99.99,,,0.00,Acu-Link.com,2013-06-17 05:44:00,
2013-06-17 00:59:00,80.6,73.8,29.97,South,180,3.8,-999.0,80,-99.99,,,0.00,Acu-Link.com,2013-06-17 05:59:00,
2013-06-17 01:14:00,80.6,74.2,29.96,South,180,4.7,-999.0,81,-99.99,,,0.00,Acu-Link.com,2013-06-17 06:14:00,
2013-06-17 01:29:00,80.6,74.9,29.95,West,270,3.8,-999.0,83,-99.99,,,0.00,Acu-Link.com,2013-06-17 06:29:00,
2013-06-17 01:45:00,80.4,75.1,29.94,WSW,247,4.7,-999.0,84,-99.99,,,0.00,Acu-Link.com,2013-06-17 06:45:00,
2013-06-17 02:00:00,80.4,75.5,29.94,SSE,157,4.3,-999.0,85,-99.99,,,0.00,Acu-Link.com,2013-06-17 07:00:00,
2013-06-17 02:15:00,80.1,75.5,29.93,SW,225,3.1,-999.0,86,-99.99,,,0.00,Acu-Link.com,2013-06-17 07:15:00,
2013-06-17 02:30:00,79.3,75.5,29.92,SSE,157,3.8,-999.0,88,-99.99,,,0.00,Acu-Link.com,2013-06-17 07:30:00,
2013-06-17 02:46:00,79.3,75.8,29.92,South,180,4.3,-999.0,89,-99.99,,,0.00,Acu-Link.com,2013-06-17 07:46:00,
2013-06-17 03:01:00,79.2,75.6,29.92,SSE,157,5.1,-999.0,89,-99.99,,,0.00,Acu-Link.com,2013-06-17 08:01:00,
2013-06-17 03:16:00,79.2,76.0,29.91,SSE,157,5.1,-999.0,90,-99.99,,,0.00,Acu-Link.com,2013-06-17 08:16:00,
2013-06-17 03:31:00,79.2,76.0,29.90,West,270,5.8,-999.0,90,-99.99,,,0.00,Acu-Link.com,2013-06-17 08:31:00,
2013-06-17 03:46:00,79.2,76.0,29.90,ESE,112,3.8,-999.0,90,-99.99,,,0.00,Acu-Link.com,2013-06-17 08:46:00,
2013-06-17 04:01:00,79.0,76.1,29.91,SSW,202,1.1,-999.0,91,-99.99,,,0.00,Acu-Link.com,2013-06-17 09:01:00,
2013-06-17 04:17:00,78.6,76.4,29.93,SSW,202,2.2,-999.0,93,-99.99,,,0.00,Acu-Link.com,2013-06-17 09:17:00,
2013-06-17 04:32:00,78.8,76.6,29.94,ESE,112,3.8,-999.0,93,-99.99,,,0.00,Acu-Link.com,2013-06-17 09:32:00,
2013-06-17 04:47:00,79.5,76.3,29.95,South,180,2.7,-999.0,90,-99.99,,,0.00,Acu-Link.com,2013-06-17 09:47:00,
2013-06-17 05:02:00,79.7,76.5,29.95,WSW,247,2.7,-999.0,90,-99.99,,,0.00,Acu-Link.com,2013-06-17 10:02:00,
2013-06-17 05:17:00,79.3,76.1,29.94,West,270,3.1,-999.0,90,-99.99,,,0.00,Acu-Link.com,2013-06-17 10:17:00,
2013-06-17 05:33:00,79.2,76.0,29.94,SSE,157,5.8,-999.0,90,-99.99,,,0.00,Acu-Link.com,2013-06-17 10:33:00,
2013-06-17 05:48:00,79.2,76.3,29.94,West,270,6.7,-999.0,91,-99.99,,,0.00,Acu-Link.com,2013-06-17 10:48:00,
2013-06-17 06:03:00,78.8,76.3,29.93,ESE,112,6.7,-999.0,92,-99.99,,,0.00,Acu-Link.com,2013-06-17 11:03:00,
2013-06-17 06:18:00,78.8,76.3,29.94,NNW,337,4.7,-999.0,92,-99.99,,,0.00,Acu-Link.com,2013-06-17 11:18:00,
2013-06-17 06:34:00,78.6,76.4,29.95,WSW,247,3.8,-999.0,93,-99.99,,,0.00,Acu-Link.com,2013-06-17 11:34:00,
2013-06-17 06:49:00,80.4,78.2,29.96,SSW,202,2.7,-999.0,93,-99.99,,,0.00,Acu-Link.com,2013-06-17 11:49:00,
2013-06-17 07:04:00,78.6,76.4,29.98,SW,225,5.8,-999.0,93,-99.99,,,0.00,Acu-Link.com,2013-06-17 12:04:00,
2013-06-17 07:19:00,78.8,76.9,29.99,SSW,202,5.1,-999.0,94,-99.99,,,0.00,Acu-Link.com,2013-06-17 12:19:00,
2013-06-17 07:34:00,79.2,77.3,29.98,WSW,247,4.3,-999.0,94,-99.99,,,0.00,Acu-Link.com,2013-06-17 12:34:00,
2013-06-17 07:50:00,79.2,77.3,29.99,WSW,247,4.7,-999.0,94,-99.99,,,0.00,Acu-Link.com,2013-06-17 12:50:00,
2013-06-17 08:05:00,79.2,77.3,30.02,WNW,292,1.1,-999.0,94,-99.99,,,0.00,Acu-Link.com,2013-06-17 13:05:00,
2013-06-17 08:20:00,76.5,70.9,30.05,WNW,292,7.8,-999.0,83,-99.99,,,0.00,Acu-Link.com,2013-06-17 13:20:00,
2013-06-17 08:35:00,70.7,68.6,30.06,West,270,6.3,-999.0,93,-99.99,,,0.11,Acu-Link.com,2013-06-17 13:35:00,
2013-06-17 08:50:00,70.2,63.3,30.08,West,270,5.1,-999.0,79,-99.99,,,0.50,Acu-Link.com,2013-06-17 13:50:00,
2013-06-17 09:06:00,70.3,59.3,30.07,NNE,22,3.1,-999.0,68,-99.99,,,0.74,Acu-Link.com,2013-06-17 14:06:00,
2013-06-17 09:21:00,70.2,59.5,30.08,NNE,22,0.0,-999.0,69,-99.99,,,0.77,Acu-Link.com,2013-06-17 14:21:00,
2013-06-17 09:36:00,70.3,56.2,30.09,NNW,337,0.0,-999.0,61,-99.99,,,0.83,Acu-Link.com,2013-06-17 14:36:00,
2013-06-17 09:51:00,70.5,53.1,30.09,NNW,337,1.6,-999.0,54,-99.99,,,0.90,Acu-Link.com,2013-06-17 14:51:00,
2013-06-17 10:06:00,70.3,52.9,30.08,North,0,0.0,-999.0,54,-99.99,,,0.96,Acu-Link.com,2013-06-17 15:06:00,
2013-06-17 10:22:00,70.3,51.9,30.05,NW,315,1.6,-999.0,52,-99.99,,,1.11,Acu-Link.com,2013-06-17 15:22:00,
2013-06-17 10:37:00,70.7,52.2,30.01,South,180,7.4,-999.0,52,-99.99,,,1.15,Acu-Link.com,2013-06-17 15:37:00,
2013-06-17 10:52:00,70.9,57.2,29.95,NNE,22,5.8,-999.0,62,-99.99,,,1.16,Acu-Link.com,2013-06-17 15:52:00,
2013-06-17 11:07:00,72.3,69.9,29.93,SSW,202,3.1,-999.0,92,-99.99,,,1.17,Acu-Link.com,2013-06-17 16:07:00,
2013-06-17 11:22:00,74.1,73.5,29.93,North,0,2.2,-999.0,98,-99.99,,,1.17,Acu-Link.com,2013-06-17 16:22:00,
2013-06-17 11:38:00,74.8,74.2,29.93,WSW,247,2.7,-999.0,98,-99.99,,,1.17,Acu-Link.com,2013-06-17 16:38:00,
2013-06-17 11:53:00,77.5,75.7,29.96,West,270,4.7,-999.0,94,-99.99,,,1.17,Acu-Link.com,2013-06-17 16:53:00,
2013-06-17 12:08:00,79.9,75.7,29.97,South,180,2.7,-999.0,87,-99.99,,,1.17,Acu-Link.com,2013-06-17 17:08:00,
2013-06-17 12:23:00,83.3,76.1,29.97,SW,225,2.2,-999.0,79,-99.99,,,1.17,Acu-Link.com,2013-06-17 17:23:00,
2013-06-17 12:39:00,84.4,76.7,29.98,SSE,157,2.2,-999.0,78,-99.99,,,1.17,Acu-Link.com,2013-06-17 17:39:00,
2013-06-17 12:54:00,85.8,76.5,29.98,SSW,202,2.7,-999.0,74,-99.99,,,1.17,Acu-Link.com,2013-06-17 17:54:00,
2013-06-17 13:09:00,86.0,76.7,29.98,WSW,247,3.1,-999.0,74,-99.99,,,1.17,Acu-Link.com,2013-06-17 18:09:00,
2013-06-17 13:24:00,87.3,77.5,29.99,SSW,202,6.7,-999.0,73,-99.99,,,1.17,Acu-Link.com,2013-06-17 18:24:00,
2013-06-17 13:39:00,87.8,77.2,29.98,West,270,4.7,-999.0,71,-99.99,,,1.17,Acu-Link.com,2013-06-17 18:39:00,
2013-06-17 13:54:00,88.2,76.7,29.98,SW,225,4.7,-999.0,69,-99.99,,,1.17,Acu-Link.com,2013-06-17 18:54:00,
2013-06-17 14:10:00,88.9,78.2,29.97,ENE,67,4.3,-999.0,71,-99.99,,,1.17,Acu-Link.com,2013-06-17 19:10:00,
2013-06-17 14:25:00,88.9,77.4,29.97,SW,225,4.7,-999.0,69,-99.99,,,1.17,Acu-Link.com,2013-06-17 19:25:00,
2013-06-17 14:40:00,89.4,78.7,29.97,SW,225,2.2,-999.0,71,-99.99,,,1.17,Acu-Link.com,2013-06-17 19:40:00,
2013-06-17 14:55:00,90.7,78.6,29.97,WSW,247,2.7,-999.0,68,-99.99,,,1.17,Acu-Link.com,2013-06-17 19:55:00,
2013-06-17 15:10:00,90.5,79.3,29.96,SSW,202,2.7,-999.0,70,-99.99,,,1.17,Acu-Link.com,2013-06-17 20:10:00,
2013-06-17 15:26:00,91.8,79.7,29.95,South,180,3.8,-999.0,68,-99.99,,,1.17,Acu-Link.com,2013-06-17 20:26:00,
2013-06-17 15:41:00,93.0,79.5,29.94,SSE,157,0.0,-999.0,65,-99.99,,,1.17,Acu-Link.com,2013-06-17 20:41:00,
2013-06-17 15:56:00,92.3,78.8,29.94,WNW,292,1.6,-999.0,65,-99.99,,,1.17,Acu-Link.com,2013-06-17 20:56:00,
2013-06-17 16:11:00,93.0,79.5,29.93,SSE,157,0.0,-999.0,65,-99.99,,,1.17,Acu-Link.com,2013-06-17 21:11:00,
2013-06-17 16:27:00,93.4,77.9,29.92,SSW,202,0.0,-999.0,61,-99.99,,,1.17,Acu-Link.com,2013-06-17 21:27:00,
2013-06-17 16:42:00,95.4,79.2,29.92,West,270,3.8,-999.0,60,-99.99,,,1.17,Acu-Link.com,2013-06-17 21:42:00,
2013-06-17 16:57:00,93.9,78.9,29.92,ESE,112,0.0,-999.0,62,-99.99,,,1.17,Acu-Link.com,2013-06-17 21:57:00,
2013-06-17 17:12:00,96.4,79.2,29.92,ESE,112,2.2,-999.0,58,-99.99,,,1.17,Acu-Link.com,2013-06-17 22:12:00,
2013-06-17 17:27:00,93.6,78.5,29.91,WSW,247,0.0,-999.0,62,-99.99,,,1.17,Acu-Link.com,2013-06-17 22:27:00,
2013-06-17 17:43:00,94.8,77.7,29.92,West,270,0.0,-999.0,58,-99.99,,,1.17,Acu-Link.com,2013-06-17 22:43:00,
2013-06-17 17:58:00,92.3,80.6,29.91,East,90,0.0,-999.0,69,-99.99,,,1.17,Acu-Link.com,2013-06-17 22:58:00,
2013-06-17 18:13:00,91.0,80.7,29.90,WNW,292,3.1,-999.0,72,-99.99,,,1.17,Acu-Link.com,2013-06-17 23:13:00,
2013-06-17 18:28:00,93.4,79.3,29.89,East,90,4.7,-999.0,64,-99.99,,,1.17,Acu-Link.com,2013-06-17 23:28:00,
2013-06-17 18:43:00,92.3,80.6,29.90,East,90,2.7,-999.0,69,-99.99,,,1.17,Acu-Link.com,2013-06-17 23:43:00,
2013-06-17 18:59:00,91.9,80.7,29.89,NNE,22,3.1,-999.0,70,-99.99,,,1.17,Acu-Link.com,2013-06-17 23:59:00,
2013-06-17 19:14:00,90.3,80.9,29.90,ESE,112,3.8,-999.0,74,-99.99,,,1.17,Acu-Link.com,2013-06-18 00:14:00,
2013-06-17 19:29:00,88.3,80.2,29.89,NNW,337,2.2,-999.0,77,-99.99,,,1.17,Acu-Link.com,2013-06-18 00:29:00,
2013-06-17 19:44:00,87.1,79.8,29.90,NE,45,3.8,-999.0,79,-99.99,,,1.17,Acu-Link.com,2013-06-18 00:44:00,
2013-06-17 19:59:00,85.5,78.9,29.90,East,90,0.0,-999.0,81,-99.99,,,1.17,Acu-Link.com,2013-06-18 00:59:00,
2013-06-17 20:15:00,84.6,78.8,29.90,WNW,292,3.1,-999.0,83,-99.99,,,1.17,Acu-Link.com,2013-06-18 01:15:00,
2013-06-17 20:30:00,83.7,78.7,29.90,NE,45,0.0,-999.0,85,-99.99,,,1.17,Acu-Link.com,2013-06-18 01:30:00,
2013-06-17 20:45:00,83.1,79.5,29.89,East,90,1.6,-999.0,89,-99.99,,,1.17,Acu-Link.com,2013-06-18 01:45:00,
2013-06-17 21:00:00,82.8,79.5,29.90,ESE,112,1.1,-999.0,90,-99.99,,,1.17,Acu-Link.com,2013-06-18 02:00:00,
2013-06-17 21:15:00,82.6,79.3,29.90,ESE,112,0.0,-999.0,90,-99.99,,,1.17,Acu-Link.com,2013-06-18 02:15:00,
2013-06-17 21:31:00,82.2,79.0,29.91,NNE,22,0.0,-999.0,90,-99.99,,,1.17,Acu-Link.com,2013-06-18 02:31:00,
2013-06-17 21:46:00,82.0,79.1,29.90,NNE,22,2.2,-999.0,91,-99.99,,,1.17,Acu-Link.com,2013-06-18 02:46:00,
2013-06-17 22:01:00,81.5,78.9,29.91,East,90,0.0,-999.0,92,-99.99,,,1.17,Acu-Link.com,2013-06-18 03:01:00,
2013-06-17 22:16:00,81.1,79.2,29.92,ESE,112,0.0,-999.0,94,-99.99,,,1.17,Acu-Link.com,2013-06-18 03:16:00,
2013-06-17 22:32:00,80.8,79.2,29.93,NNE,22,0.0,-999.0,95,-99.99,,,1.17,Acu-Link.com,2013-06-18 03:32:00,
2013-06-17 22:47:00,80.8,79.8,29.94,NW,315,0.0,-999.0,97,-99.99,,,1.17,Acu-Link.com,2013-06-18 03:47:00,
2013-06-17 23:02:00,80.8,79.2,29.94,NE,45,0.0,-999.0,95,-99.99,,,1.17,Acu-Link.com,2013-06-18 04:02:00,
2013-06-17 23:17:00,81.0,79.7,29.95,West,270,2.7,-999.0,96,-99.99,,,1.17,Acu-Link.com,2013-06-18 04:17:00,
2013-06-17 23:32:00,80.8,79.5,29.95,ENE,67,6.3,-999.0,96,-99.99,,,1.17,Acu-Link.com,2013-06-18 04:32:00,
2013-06-17 23:48:00,80.4,79.2,29.95,ESE,112,4.7,-999.0,96,-99.99,,,1.17,Acu-Link.com,2013-06-18 04:48:00,